owner,sensor,date,latitude,longitude,relative_humidity,qcFlag 
COMPS,ioos:station:USF.COMPS:FHP:1,2019-10-01T00:54:00,28.1530,-82.8010,64.98,11111222 
COMPS,ioos:station:USF.COMPS:FHP:1,2019-10-01T01:54:00,28.1530,-82.8010,71.8,11111222 
COMPS,ioos:station:USF.COMPS:FHP:1,2019-10-01T02:54:00,28.1530,-82.8010,77.62,11111222 
COMPS,ioos:station:USF.COMPS:FHP:1,2019-10-01T03:54:00,28.1530,-82.8010,80.22,11111222 
COMPS,ioos:station:USF.COMPS:FHP:1,2019-10-01T04:54:00,28.1530,-82.8010,81.23,11111222 
COMPS,ioos:station:USF.COMPS:FHP:1,2019-10-01T05:54:00,28.1530,-82.8010,84.51,11111222 
COMPS,ioos:station:USF.COMPS:FHP:1,2019-10-01T06:54:00,28.1530,-82.8010,88.65,11111222 
COMPS,ioos:station:USF.COMPS:FHP:1,2019-10-01T07:54:00,28.1530,-82.8010,90.4,11111222 
COMPS,ioos:station:USF.COMPS:FHP:1,2019-10-01T08:54:00,28.1530,-82.8010,91.97,11111222 
COMPS,ioos:station:USF.COMPS:FHP:1,2019-10-01T09:54:00,28.1530,-82.8010,92.96,11111222 
COMPS,ioos:station:USF.COMPS:FHP:1,2019-10-01T10:54:00,28.1530,-82.8010,92.6,11111222 
COMPS,ioos:station:USF.COMPS:FHP:1,2019-10-01T11:54:00,28.1530,-82.8010,93.37,11111222 
COMPS,ioos:station:USF.COMPS:FHP:1,2019-10-01T12:54:00,28.1530,-82.8010,87.92,11111222 
COMPS,ioos:station:USF.COMPS:FHP:1,2019-10-01T13:54:00,28.1530,-82.8010,75.94,11111222 
COMPS,ioos:station:USF.COMPS:FHP:1,2019-10-01T14:54:00,28.1530,-82.8010,69.25,11111222 
COMPS,ioos:station:USF.COMPS:FHP:1,2019-10-01T15:54:00,28.1530,-82.8010,61.98,11111222 
COMPS,ioos:station:USF.COMPS:FHP:1,2019-10-01T16:54:00,28.1530,-82.8010,57.87,11111222 
COMPS,ioos:station:USF.COMPS:FHP:1,2019-10-01T17:54:00,28.1530,-82.8010,56.31,11111222 
COMPS,ioos:station:USF.COMPS:FHP:1,2019-10-01T18:54:00,28.1530,-82.8010,75.04,11111222 
COMPS,ioos:station:USF.COMPS:FHP:1,2019-10-01T19:54:00,28.1530,-82.8010,65.14,11111222 
COMPS,ioos:station:USF.COMPS:FHP:1,2019-10-01T20:54:00,28.1530,-82.8010,59.19,11111222 
COMPS,ioos:station:USF.COMPS:FHP:1,2019-10-01T21:54:00,28.1530,-82.8010,55.27,11111222 
COMPS,ioos:station:USF.COMPS:FHP:1,2019-10-01T22:54:00,28.1530,-82.8010,50.27,11111222 
COMPS,ioos:station:USF.COMPS:FHP:1,2019-10-01T23:54:00,28.1530,-82.8010,53.91,11111222 
COMPS,ioos:station:USF.COMPS:FHP:1,2019-10-02T00:54:00,28.1530,-82.8010,60.49,11111222 
COMPS,ioos:station:USF.COMPS:FHP:1,2019-10-02T01:54:00,28.1530,-82.8010,65.26,11111222 
COMPS,ioos:station:USF.COMPS:FHP:1,2019-10-02T02:54:00,28.1530,-82.8010,70.39,11111222 
COMPS,ioos:station:USF.COMPS:FHP:1,2019-10-02T03:54:00,28.1530,-82.8010,75.65,11111222 
COMPS,ioos:station:USF.COMPS:FHP:1,2019-10-02T04:54:00,28.1530,-82.8010,79.16,11111222 
COMPS,ioos:station:USF.COMPS:FHP:1,2019-10-02T05:54:00,28.1530,-82.8010,82.02,11111222 
COMPS,ioos:station:USF.COMPS:FHP:1,2019-10-02T06:54:00,28.1530,-82.8010,84.96,11111222 
COMPS,ioos:station:USF.COMPS:FHP:1,2019-10-02T07:54:00,28.1530,-82.8010,88.03,11111222 
COMPS,ioos:station:USF.COMPS:FHP:1,2019-10-02T08:54:00,28.1530,-82.8010,89.1,11111222 
COMPS,ioos:station:USF.COMPS:FHP:1,2019-10-02T09:54:00,28.1530,-82.8010,89.75,11111222 
COMPS,ioos:station:USF.COMPS:FHP:1,2019-10-02T10:54:00,28.1530,-82.8010,89.35,11111222 
COMPS,ioos:station:USF.COMPS:FHP:1,2019-10-02T11:54:00,28.1530,-82.8010,89.47,11111222 
COMPS,ioos:station:USF.COMPS:FHP:1,2019-10-02T12:54:00,28.1530,-82.8010,83.98,11111222 
COMPS,ioos:station:USF.COMPS:FHP:1,2019-10-02T13:54:00,28.1530,-82.8010,77.63,11111222 
COMPS,ioos:station:USF.COMPS:FHP:1,2019-10-02T14:54:00,28.1530,-82.8010,68.69,11111222 
COMPS,ioos:station:USF.COMPS:FHP:1,2019-10-02T15:54:00,28.1530,-82.8010,63.2,11111222 
COMPS,ioos:station:USF.COMPS:FHP:1,2019-10-02T16:54:00,28.1530,-82.8010,58.55,11111222 
COMPS,ioos:station:USF.COMPS:FHP:1,2019-10-02T17:54:00,28.1530,-82.8010,53.31,11111222 
COMPS,ioos:station:USF.COMPS:FHP:1,2019-10-02T18:54:00,28.1530,-82.8010,50.92,11111222 
COMPS,ioos:station:USF.COMPS:FHP:1,2019-10-02T19:54:00,28.1530,-82.8010,47.3,11111222 
COMPS,ioos:station:USF.COMPS:FHP:1,2019-10-02T20:54:00,28.1530,-82.8010,45.96,11111222 
COMPS,ioos:station:USF.COMPS:FHP:1,2019-10-02T21:54:00,28.1530,-82.8010,46.63,11111222 
COMPS,ioos:station:USF.COMPS:FHP:1,2019-10-02T22:54:00,28.1530,-82.8010,49.23,11111222 
COMPS,ioos:station:USF.COMPS:FHP:1,2019-10-02T23:54:00,28.1530,-82.8010,55.24,11111222 
COMPS,ioos:station:USF.COMPS:FHP:1,2019-10-03T00:54:00,28.1530,-82.8010,62.99,11111222 
COMPS,ioos:station:USF.COMPS:FHP:1,2019-10-03T01:54:00,28.1530,-82.8010,67.81,11111222 
COMPS,ioos:station:USF.COMPS:FHP:1,2019-10-03T02:54:00,28.1530,-82.8010,70.49,11111222 
COMPS,ioos:station:USF.COMPS:FHP:1,2019-10-03T03:54:00,28.1530,-82.8010,75.04,11111222 
COMPS,ioos:station:USF.COMPS:FHP:1,2019-10-03T04:54:00,28.1530,-82.8010,79.44,11111222 
COMPS,ioos:station:USF.COMPS:FHP:1,2019-10-03T05:54:00,28.1530,-82.8010,81.89,11111222 
COMPS,ioos:station:USF.COMPS:FHP:1,2019-10-03T06:54:00,28.1530,-82.8010,83.89,11111222 
COMPS,ioos:station:USF.COMPS:FHP:1,2019-10-03T07:54:00,28.1530,-82.8010,87.62,11111222 
COMPS,ioos:station:USF.COMPS:FHP:1,2019-10-03T08:54:00,28.1530,-82.8010,88.41,11111222 
COMPS,ioos:station:USF.COMPS:FHP:1,2019-10-03T09:54:00,28.1530,-82.8010,88.77,11111222 
COMPS,ioos:station:USF.COMPS:FHP:1,2019-10-03T10:54:00,28.1530,-82.8010,92.63,11111222 
COMPS,ioos:station:USF.COMPS:FHP:1,2019-10-03T11:54:00,28.1530,-82.8010,93.65,11111222 
COMPS,ioos:station:USF.COMPS:FHP:1,2019-10-03T12:54:00,28.1530,-82.8010,87.39,11111222 
COMPS,ioos:station:USF.COMPS:FHP:1,2019-10-03T13:54:00,28.1530,-82.8010,77.71,11111222 
COMPS,ioos:station:USF.COMPS:FHP:1,2019-10-03T14:54:00,28.1530,-82.8010,73.77,11111222 
COMPS,ioos:station:USF.COMPS:FHP:1,2019-10-03T15:54:00,28.1530,-82.8010,61.54,11111222 
COMPS,ioos:station:USF.COMPS:FHP:1,2019-10-03T16:54:00,28.1530,-82.8010,55.1,11111222 
COMPS,ioos:station:USF.COMPS:FHP:1,2019-10-03T17:54:00,28.1530,-82.8010,49.23,11111222 
COMPS,ioos:station:USF.COMPS:FHP:1,2019-10-03T18:54:00,28.1530,-82.8010,73.72,11111222 
COMPS,ioos:station:USF.COMPS:FHP:1,2019-10-03T19:54:00,28.1530,-82.8010,73.77,11111222 
COMPS,ioos:station:USF.COMPS:FHP:1,2019-10-03T20:54:00,28.1530,-82.8010,75.09,11111222 
COMPS,ioos:station:USF.COMPS:FHP:1,2019-10-03T21:54:00,28.1530,-82.8010,76.94,11111222 
COMPS,ioos:station:USF.COMPS:FHP:1,2019-10-03T22:54:00,28.1530,-82.8010,77.84,11111222 
COMPS,ioos:station:USF.COMPS:FHP:1,2019-10-03T23:54:00,28.1530,-82.8010,77.55,11111222 
COMPS,ioos:station:USF.COMPS:FHP:1,2019-10-04T00:54:00,28.1530,-82.8010,66.74,11111222 
COMPS,ioos:station:USF.COMPS:FHP:1,2019-10-04T01:54:00,28.1530,-82.8010,66.48,11111222 
COMPS,ioos:station:USF.COMPS:FHP:1,2019-10-04T02:54:00,28.1530,-82.8010,71.52,11111222 
COMPS,ioos:station:USF.COMPS:FHP:1,2019-10-04T03:54:00,28.1530,-82.8010,75.02,11111222 
COMPS,ioos:station:USF.COMPS:FHP:1,2019-10-04T04:54:00,28.1530,-82.8010,78.07,11111222 
COMPS,ioos:station:USF.COMPS:FHP:1,2019-10-04T05:54:00,28.1530,-82.8010,79.27,11111222 
COMPS,ioos:station:USF.COMPS:FHP:1,2019-10-04T06:54:00,28.1530,-82.8010,80.95,11111222 
COMPS,ioos:station:USF.COMPS:FHP:1,2019-10-04T07:54:00,28.1530,-82.8010,82.67,11111222 
COMPS,ioos:station:USF.COMPS:FHP:1,2019-10-04T08:54:00,28.1530,-82.8010,84.72,11111222 
COMPS,ioos:station:USF.COMPS:FHP:1,2019-10-04T09:54:00,28.1530,-82.8010,87.03,11111222 
COMPS,ioos:station:USF.COMPS:FHP:1,2019-10-04T10:54:00,28.1530,-82.8010,91.17,11111222 
COMPS,ioos:station:USF.COMPS:FHP:1,2019-10-04T11:54:00,28.1530,-82.8010,92.27,11111222 
COMPS,ioos:station:USF.COMPS:FHP:1,2019-10-04T12:54:00,28.1530,-82.8010,87.99,11111222 
COMPS,ioos:station:USF.COMPS:FHP:1,2019-10-04T13:54:00,28.1530,-82.8010,78.44,11111222 
COMPS,ioos:station:USF.COMPS:FHP:1,2019-10-04T14:54:00,28.1530,-82.8010,70.87,11111222 
COMPS,ioos:station:USF.COMPS:FHP:1,2019-10-04T15:54:00,28.1530,-82.8010,64.95,11111222 
COMPS,ioos:station:USF.COMPS:FHP:1,2019-10-04T16:54:00,28.1530,-82.8010,72.1,11111222 
COMPS,ioos:station:USF.COMPS:FHP:1,2019-10-04T17:54:00,28.1530,-82.8010,78.04,11111222 
COMPS,ioos:station:USF.COMPS:FHP:1,2019-10-04T18:54:00,28.1530,-82.8010,76.34,11111222 
COMPS,ioos:station:USF.COMPS:FHP:1,2019-10-04T19:54:00,28.1530,-82.8010,74.59,11111222 
COMPS,ioos:station:USF.COMPS:FHP:1,2019-10-04T20:54:00,28.1530,-82.8010,75.89,11111222 
COMPS,ioos:station:USF.COMPS:FHP:1,2019-10-04T21:54:00,28.1530,-82.8010,76.17,11111222 
COMPS,ioos:station:USF.COMPS:FHP:1,2019-10-04T22:54:00,28.1530,-82.8010,76.35,11111222 
COMPS,ioos:station:USF.COMPS:FHP:1,2019-10-04T23:54:00,28.1530,-82.8010,75.68,11111222 
COMPS,ioos:station:USF.COMPS:FHP:1,2019-10-05T00:54:00,28.1530,-82.8010,77.26,11111222 
COMPS,ioos:station:USF.COMPS:FHP:1,2019-10-05T01:54:00,28.1530,-82.8010,76.97,11111222 
COMPS,ioos:station:USF.COMPS:FHP:1,2019-10-05T02:54:00,28.1530,-82.8010,79.53,11111222 
COMPS,ioos:station:USF.COMPS:FHP:1,2019-10-05T03:54:00,28.1530,-82.8010,80.64,11111222 
COMPS,ioos:station:USF.COMPS:FHP:1,2019-10-05T04:54:00,28.1530,-82.8010,81.81,11111222 
COMPS,ioos:station:USF.COMPS:FHP:1,2019-10-05T05:54:00,28.1530,-82.8010,83.83,11111222 
COMPS,ioos:station:USF.COMPS:FHP:1,2019-10-05T06:54:00,28.1530,-82.8010,86.19,11111222 
COMPS,ioos:station:USF.COMPS:FHP:1,2019-10-05T07:54:00,28.1530,-82.8010,88.53,11111222 
COMPS,ioos:station:USF.COMPS:FHP:1,2019-10-05T08:54:00,28.1530,-82.8010,90.71,11111222 
COMPS,ioos:station:USF.COMPS:FHP:1,2019-10-05T09:54:00,28.1530,-82.8010,91.51,11111222 
COMPS,ioos:station:USF.COMPS:FHP:1,2019-10-05T10:54:00,28.1530,-82.8010,92.66,11111222 
COMPS,ioos:station:USF.COMPS:FHP:1,2019-10-05T11:54:00,28.1530,-82.8010,93.87,11111222 
COMPS,ioos:station:USF.COMPS:FHP:1,2019-10-05T12:54:00,28.1530,-82.8010,89.4,11111222 
COMPS,ioos:station:USF.COMPS:FHP:1,2019-10-05T13:54:00,28.1530,-82.8010,83.18,11111222 
COMPS,ioos:station:USF.COMPS:FHP:1,2019-10-05T14:54:00,28.1530,-82.8010,76.21,11111222 
COMPS,ioos:station:USF.COMPS:FHP:1,2019-10-05T15:54:00,28.1530,-82.8010,67.24,11111222 
COMPS,ioos:station:USF.COMPS:FHP:1,2019-10-05T16:54:00,28.1530,-82.8010,56.67,11111222 
COMPS,ioos:station:USF.COMPS:FHP:1,2019-10-05T17:54:00,28.1530,-82.8010,51.31,11111222 
COMPS,ioos:station:USF.COMPS:FHP:1,2019-10-05T18:54:00,28.1530,-82.8010,51.71,11111222 
COMPS,ioos:station:USF.COMPS:FHP:1,2019-10-05T19:54:00,28.1530,-82.8010,52.23,11111222 
COMPS,ioos:station:USF.COMPS:FHP:1,2019-10-05T20:54:00,28.1530,-82.8010,50.85,11111222 
COMPS,ioos:station:USF.COMPS:FHP:1,2019-10-05T21:54:00,28.1530,-82.8010,54.36,11111222 
COMPS,ioos:station:USF.COMPS:FHP:1,2019-10-05T22:54:00,28.1530,-82.8010,76.03,11111222 
COMPS,ioos:station:USF.COMPS:FHP:1,2019-10-05T23:54:00,28.1530,-82.8010,77.03,11111222 
COMPS,ioos:station:USF.COMPS:FHP:1,2019-10-06T00:54:00,28.1530,-82.8010,75.87,11111222 
COMPS,ioos:station:USF.COMPS:FHP:1,2019-10-06T01:54:00,28.1530,-82.8010,75.5,11111222 
COMPS,ioos:station:USF.COMPS:FHP:1,2019-10-06T02:54:00,28.1530,-82.8010,77.61,11111222 
COMPS,ioos:station:USF.COMPS:FHP:1,2019-10-06T03:54:00,28.1530,-82.8010,81.85,11111222 
COMPS,ioos:station:USF.COMPS:FHP:1,2019-10-06T04:54:00,28.1530,-82.8010,84.18,11111222 
COMPS,ioos:station:USF.COMPS:FHP:1,2019-10-06T05:54:00,28.1530,-82.8010,86.07,11111222 
COMPS,ioos:station:USF.COMPS:FHP:1,2019-10-06T06:54:00,28.1530,-82.8010,87.38,11111222 
COMPS,ioos:station:USF.COMPS:FHP:1,2019-10-06T07:54:00,28.1530,-82.8010,89.51,11111222 
COMPS,ioos:station:USF.COMPS:FHP:1,2019-10-06T08:54:00,28.1530,-82.8010,91.44,11111222 
COMPS,ioos:station:USF.COMPS:FHP:1,2019-10-06T09:54:00,28.1530,-82.8010,92.52,11111222 
COMPS,ioos:station:USF.COMPS:FHP:1,2019-10-06T10:54:00,28.1530,-82.8010,92.71,11111222 
COMPS,ioos:station:USF.COMPS:FHP:1,2019-10-06T11:54:00,28.1530,-82.8010,92.99,11111222 
COMPS,ioos:station:USF.COMPS:FHP:1,2019-10-06T12:54:00,28.1530,-82.8010,89.16,11111222 
COMPS,ioos:station:USF.COMPS:FHP:1,2019-10-06T13:54:00,28.1530,-82.8010,83.32,11111222 
COMPS,ioos:station:USF.COMPS:FHP:1,2019-10-06T14:54:00,28.1530,-82.8010,75.41,11111222 
COMPS,ioos:station:USF.COMPS:FHP:1,2019-10-06T15:54:00,28.1530,-82.8010,68.3,11111222 
COMPS,ioos:station:USF.COMPS:FHP:1,2019-10-06T16:54:00,28.1530,-82.8010,67.85,11111222 
COMPS,ioos:station:USF.COMPS:FHP:1,2019-10-06T17:54:00,28.1530,-82.8010,91.72,11111222 
COMPS,ioos:station:USF.COMPS:FHP:1,2019-10-06T18:54:00,28.1530,-82.8010,90.78,11111222 
COMPS,ioos:station:USF.COMPS:FHP:1,2019-10-06T19:54:00,28.1530,-82.8010,74.84,11111222 
COMPS,ioos:station:USF.COMPS:FHP:1,2019-10-06T20:54:00,28.1530,-82.8010,76.66,11111222 
COMPS,ioos:station:USF.COMPS:FHP:1,2019-10-06T21:54:00,28.1530,-82.8010,72.53,11111222 
COMPS,ioos:station:USF.COMPS:FHP:1,2019-10-06T22:54:00,28.1530,-82.8010,67.07,11111222 
COMPS,ioos:station:USF.COMPS:FHP:1,2019-10-06T23:54:00,28.1530,-82.8010,70.09,11111222 
COMPS,ioos:station:USF.COMPS:FHP:1,2019-10-07T00:54:00,28.1530,-82.8010,72.7,11111222 
COMPS,ioos:station:USF.COMPS:FHP:1,2019-10-07T01:54:00,28.1530,-82.8010,75.49,11111222 
COMPS,ioos:station:USF.COMPS:FHP:1,2019-10-07T02:54:00,28.1530,-82.8010,78.26,11111222 
COMPS,ioos:station:USF.COMPS:FHP:1,2019-10-07T03:54:00,28.1530,-82.8010,80.89,11111222 
COMPS,ioos:station:USF.COMPS:FHP:1,2019-10-07T04:54:00,28.1530,-82.8010,85.66,11111222 
COMPS,ioos:station:USF.COMPS:FHP:1,2019-10-07T05:54:00,28.1530,-82.8010,86.49,11111222 
COMPS,ioos:station:USF.COMPS:FHP:1,2019-10-07T06:54:00,28.1530,-82.8010,88.93,11111222 
COMPS,ioos:station:USF.COMPS:FHP:1,2019-10-07T07:54:00,28.1530,-82.8010,91.02,11111222 
COMPS,ioos:station:USF.COMPS:FHP:1,2019-10-07T08:54:00,28.1530,-82.8010,90.69,11111222 
COMPS,ioos:station:USF.COMPS:FHP:1,2019-10-07T09:54:00,28.1530,-82.8010,90.15,11111222 
COMPS,ioos:station:USF.COMPS:FHP:1,2019-10-07T10:54:00,28.1530,-82.8010,90.98,11111222 
COMPS,ioos:station:USF.COMPS:FHP:1,2019-10-07T11:54:00,28.1530,-82.8010,90.37,11111222 
COMPS,ioos:station:USF.COMPS:FHP:1,2019-10-07T12:54:00,28.1530,-82.8010,88.55,11111222 
COMPS,ioos:station:USF.COMPS:FHP:1,2019-10-07T14:54:00,28.1530,-82.8010,88.23,11111222 
COMPS,ioos:station:USF.COMPS:FHP:1,2019-10-07T15:54:00,28.1530,-82.8010,87.85,11111222 
COMPS,ioos:station:USF.COMPS:FHP:1,2019-10-07T16:54:00,28.1530,-82.8010,85.06,11111222 
COMPS,ioos:station:USF.COMPS:FHP:1,2019-10-07T17:54:00,28.1530,-82.8010,84.19,11111222 
COMPS,ioos:station:USF.COMPS:FHP:1,2019-10-07T18:54:00,28.1530,-82.8010,82.65,11111222 
COMPS,ioos:station:USF.COMPS:FHP:1,2019-10-07T19:54:00,28.1530,-82.8010,84.05,11111222 
COMPS,ioos:station:USF.COMPS:FHP:1,2019-10-07T20:54:00,28.1530,-82.8010,84.04,11111222 
COMPS,ioos:station:USF.COMPS:FHP:1,2019-10-07T21:54:00,28.1530,-82.8010,84.4,11111222 
COMPS,ioos:station:USF.COMPS:FHP:1,2019-10-07T22:54:00,28.1530,-82.8010,87.33,11111222 
COMPS,ioos:station:USF.COMPS:FHP:1,2019-10-07T23:54:00,28.1530,-82.8010,87.91,11111222 
COMPS,ioos:station:USF.COMPS:FHP:1,2019-10-08T00:54:00,28.1530,-82.8010,88.37,11111222 
COMPS,ioos:station:USF.COMPS:FHP:1,2019-10-08T01:54:00,28.1530,-82.8010,88.87,11111222 
COMPS,ioos:station:USF.COMPS:FHP:1,2019-10-08T02:54:00,28.1530,-82.8010,91.12,11111222 
COMPS,ioos:station:USF.COMPS:FHP:1,2019-10-08T03:54:00,28.1530,-82.8010,91.48,11111222 
COMPS,ioos:station:USF.COMPS:FHP:1,2019-10-08T04:54:00,28.1530,-82.8010,92.19,11111222 
COMPS,ioos:station:USF.COMPS:FHP:1,2019-10-08T05:54:00,28.1530,-82.8010,91.54,11111222 
COMPS,ioos:station:USF.COMPS:FHP:1,2019-10-08T06:54:00,28.1530,-82.8010,92.05,11111222 
COMPS,ioos:station:USF.COMPS:FHP:1,2019-10-08T07:54:00,28.1530,-82.8010,92.97,11111222 
COMPS,ioos:station:USF.COMPS:FHP:1,2019-10-08T08:54:00,28.1530,-82.8010,94.37,11111222 
COMPS,ioos:station:USF.COMPS:FHP:1,2019-10-08T09:54:00,28.1530,-82.8010,94.73,11111222 
COMPS,ioos:station:USF.COMPS:FHP:1,2019-10-08T10:54:00,28.1530,-82.8010,94.2,11111222 
COMPS,ioos:station:USF.COMPS:FHP:1,2019-10-08T11:54:00,28.1530,-82.8010,93.08,11111222 
COMPS,ioos:station:USF.COMPS:FHP:1,2019-10-08T12:54:00,28.1530,-82.8010,91.07,11111222 
COMPS,ioos:station:USF.COMPS:FHP:1,2019-10-08T13:54:00,28.1530,-82.8010,86.92,11111222 
COMPS,ioos:station:USF.COMPS:FHP:1,2019-10-08T14:54:00,28.1530,-82.8010,83.05,11111222 
COMPS,ioos:station:USF.COMPS:FHP:1,2019-10-08T15:54:00,28.1530,-82.8010,76.69,11111222 
COMPS,ioos:station:USF.COMPS:FHP:1,2019-10-08T16:54:00,28.1530,-82.8010,83.63,11111222 
COMPS,ioos:station:USF.COMPS:FHP:1,2019-10-08T17:54:00,28.1530,-82.8010,80.9,11111222 
COMPS,ioos:station:USF.COMPS:FHP:1,2019-10-08T18:54:00,28.1530,-82.8010,80.26,11111222 
COMPS,ioos:station:USF.COMPS:FHP:1,2019-10-08T19:54:00,28.1530,-82.8010,78.09,11111222 
COMPS,ioos:station:USF.COMPS:FHP:1,2019-10-08T20:54:00,28.1530,-82.8010,73.94,11111222 
COMPS,ioos:station:USF.COMPS:FHP:1,2019-10-08T21:54:00,28.1530,-82.8010,93.37,11111222 
COMPS,ioos:station:USF.COMPS:FHP:1,2019-10-08T22:54:00,28.1530,-82.8010,95.17,11111222 
COMPS,ioos:station:USF.COMPS:FHP:1,2019-10-08T23:54:00,28.1530,-82.8010,95.08,11111222 
COMPS,ioos:station:USF.COMPS:FHP:1,2019-10-09T00:54:00,28.1530,-82.8010,94.93,11111222 
COMPS,ioos:station:USF.COMPS:FHP:1,2019-10-09T01:54:00,28.1530,-82.8010,95.44,11111222 
COMPS,ioos:station:USF.COMPS:FHP:1,2019-10-09T02:54:00,28.1530,-82.8010,93.91,11111222 
COMPS,ioos:station:USF.COMPS:FHP:1,2019-10-09T03:54:00,28.1530,-82.8010,94.33,11111222 
COMPS,ioos:station:USF.COMPS:FHP:1,2019-10-09T04:54:00,28.1530,-82.8010,95.14,11111222 
COMPS,ioos:station:USF.COMPS:FHP:1,2019-10-09T05:54:00,28.1530,-82.8010,95.22,11111222 
COMPS,ioos:station:USF.COMPS:FHP:1,2019-10-09T06:54:00,28.1530,-82.8010,95.52,11111222 
COMPS,ioos:station:USF.COMPS:FHP:1,2019-10-09T07:54:00,28.1530,-82.8010,96.03,11111222 
COMPS,ioos:station:USF.COMPS:FHP:1,2019-10-09T08:54:00,28.1530,-82.8010,95.28,11111222 
COMPS,ioos:station:USF.COMPS:FHP:1,2019-10-09T09:54:00,28.1530,-82.8010,95.44,11111222 
COMPS,ioos:station:USF.COMPS:FHP:1,2019-10-09T10:54:00,28.1530,-82.8010,95.21,11111222 
COMPS,ioos:station:USF.COMPS:FHP:1,2019-10-09T11:54:00,28.1530,-82.8010,94.94,11111222 
COMPS,ioos:station:USF.COMPS:FHP:1,2019-10-09T12:54:00,28.1530,-82.8010,94.83,11111222 
COMPS,ioos:station:USF.COMPS:FHP:1,2019-10-09T13:54:00,28.1530,-82.8010,93.7,11111222 
COMPS,ioos:station:USF.COMPS:FHP:1,2019-10-09T14:54:00,28.1530,-82.8010,89.35,11111222 
COMPS,ioos:station:USF.COMPS:FHP:1,2019-10-09T15:54:00,28.1530,-82.8010,79.9,11111222 
COMPS,ioos:station:USF.COMPS:FHP:1,2019-10-09T16:54:00,28.1530,-82.8010,78.34,11111222 
COMPS,ioos:station:USF.COMPS:FHP:1,2019-10-09T17:54:00,28.1530,-82.8010,77.55,11111222 
COMPS,ioos:station:USF.COMPS:FHP:1,2019-10-09T18:54:00,28.1530,-82.8010,72.82,11111222 
COMPS,ioos:station:USF.COMPS:FHP:1,2019-10-09T19:54:00,28.1530,-82.8010,72.18,11111222 
COMPS,ioos:station:USF.COMPS:FHP:1,2019-10-09T20:54:00,28.1530,-82.8010,71.96,11111222 
COMPS,ioos:station:USF.COMPS:FHP:1,2019-10-09T21:54:00,28.1530,-82.8010,75.79,11111222 
COMPS,ioos:station:USF.COMPS:FHP:1,2019-10-09T22:54:00,28.1530,-82.8010,78.17,11111222 
COMPS,ioos:station:USF.COMPS:FHP:1,2019-10-10T00:54:00,28.1530,-82.8010,81.43,11111222 
COMPS,ioos:station:USF.COMPS:FHP:1,2019-10-10T01:54:00,28.1530,-82.8010,84.44,11111222 
COMPS,ioos:station:USF.COMPS:FHP:1,2019-10-10T02:54:00,28.1530,-82.8010,84.76,11111222 
COMPS,ioos:station:USF.COMPS:FHP:1,2019-10-10T03:54:00,28.1530,-82.8010,86.61,11111222 
COMPS,ioos:station:USF.COMPS:FHP:1,2019-10-10T04:54:00,28.1530,-82.8010,88.63,11111222 
COMPS,ioos:station:USF.COMPS:FHP:1,2019-10-10T05:54:00,28.1530,-82.8010,90.38,11111222 
COMPS,ioos:station:USF.COMPS:FHP:1,2019-10-10T06:54:00,28.1530,-82.8010,91.02,11111222 
COMPS,ioos:station:USF.COMPS:FHP:1,2019-10-10T07:54:00,28.1530,-82.8010,91.47,11111222 
COMPS,ioos:station:USF.COMPS:FHP:1,2019-10-10T08:54:00,28.1530,-82.8010,91.9,11111222 
COMPS,ioos:station:USF.COMPS:FHP:1,2019-10-10T09:54:00,28.1530,-82.8010,91.43,11111222 
COMPS,ioos:station:USF.COMPS:FHP:1,2019-10-10T10:54:00,28.1530,-82.8010,92.4,11111222 
COMPS,ioos:station:USF.COMPS:FHP:1,2019-10-10T11:54:00,28.1530,-82.8010,92.59,11111222 
COMPS,ioos:station:USF.COMPS:FHP:1,2019-10-10T12:54:00,28.1530,-82.8010,89.45,11111222 
COMPS,ioos:station:USF.COMPS:FHP:1,2019-10-10T13:54:00,28.1530,-82.8010,84.92,11111222 
COMPS,ioos:station:USF.COMPS:FHP:1,2019-10-10T14:54:00,28.1530,-82.8010,75.83,11111222 
COMPS,ioos:station:USF.COMPS:FHP:1,2019-10-10T15:54:00,28.1530,-82.8010,71.91,11111222 
COMPS,ioos:station:USF.COMPS:FHP:1,2019-10-10T16:54:00,28.1530,-82.8010,66.19,11111222 
COMPS,ioos:station:USF.COMPS:FHP:1,2019-10-10T17:54:00,28.1530,-82.8010,64.7,11111222 
COMPS,ioos:station:USF.COMPS:FHP:1,2019-10-10T18:54:00,28.1530,-82.8010,70.9,11111222 
COMPS,ioos:station:USF.COMPS:FHP:1,2019-10-10T19:54:00,28.1530,-82.8010,77.45,11111222 
COMPS,ioos:station:USF.COMPS:FHP:1,2019-10-10T20:54:00,28.1530,-82.8010,76.81,11111222 
COMPS,ioos:station:USF.COMPS:FHP:1,2019-10-10T21:54:00,28.1530,-82.8010,59.92,11111222 
COMPS,ioos:station:USF.COMPS:FHP:1,2019-10-10T22:54:00,28.1530,-82.8010,67.65,11111222 
COMPS,ioos:station:USF.COMPS:FHP:1,2019-10-10T23:54:00,28.1530,-82.8010,70.2,11111222 
COMPS,ioos:station:USF.COMPS:FHP:1,2019-10-11T00:54:00,28.1530,-82.8010,73.08,11111222 
COMPS,ioos:station:USF.COMPS:FHP:1,2019-10-11T01:54:00,28.1530,-82.8010,75.76,11111222 
COMPS,ioos:station:USF.COMPS:FHP:1,2019-10-11T02:54:00,28.1530,-82.8010,78.1,11111222 
COMPS,ioos:station:USF.COMPS:FHP:1,2019-10-11T03:54:00,28.1530,-82.8010,82.63,11111222 
COMPS,ioos:station:USF.COMPS:FHP:1,2019-10-11T04:54:00,28.1530,-82.8010,85.57,11111222 
COMPS,ioos:station:USF.COMPS:FHP:1,2019-10-11T05:54:00,28.1530,-82.8010,87.57,11111222 
COMPS,ioos:station:USF.COMPS:FHP:1,2019-10-11T06:54:00,28.1530,-82.8010,89.15,11111222 
COMPS,ioos:station:USF.COMPS:FHP:1,2019-10-11T07:54:00,28.1530,-82.8010,89.07,11111222 
COMPS,ioos:station:USF.COMPS:FHP:1,2019-10-11T08:54:00,28.1530,-82.8010,89.86,11111222 
COMPS,ioos:station:USF.COMPS:FHP:1,2019-10-11T09:54:00,28.1530,-82.8010,90.43,11111222 
COMPS,ioos:station:USF.COMPS:FHP:1,2019-10-11T10:54:00,28.1530,-82.8010,90.24,11111222 
COMPS,ioos:station:USF.COMPS:FHP:1,2019-10-11T11:54:00,28.1530,-82.8010,90.46,11111222 
COMPS,ioos:station:USF.COMPS:FHP:1,2019-10-11T12:54:00,28.1530,-82.8010,84.78,11111222 
COMPS,ioos:station:USF.COMPS:FHP:1,2019-10-11T13:54:00,28.1530,-82.8010,74.15,11111222 
COMPS,ioos:station:USF.COMPS:FHP:1,2019-10-11T14:54:00,28.1530,-82.8010,68.79,11111222 
COMPS,ioos:station:USF.COMPS:FHP:1,2019-10-11T15:54:00,28.1530,-82.8010,64.89,11111222 
COMPS,ioos:station:USF.COMPS:FHP:1,2019-10-11T16:54:00,28.1530,-82.8010,60.57,11111222 
COMPS,ioos:station:USF.COMPS:FHP:1,2019-10-11T17:54:00,28.1530,-82.8010,50.8,11111222 
COMPS,ioos:station:USF.COMPS:FHP:1,2019-10-11T18:54:00,28.1530,-82.8010,46.58,11111222 
COMPS,ioos:station:USF.COMPS:FHP:1,2019-10-11T19:54:00,28.1530,-82.8010,68.53,11111222 
COMPS,ioos:station:USF.COMPS:FHP:1,2019-10-11T20:54:00,28.1530,-82.8010,68.86,11111222 
COMPS,ioos:station:USF.COMPS:FHP:1,2019-10-11T21:54:00,28.1530,-82.8010,69.44,11111222 
COMPS,ioos:station:USF.COMPS:FHP:1,2019-10-11T22:54:00,28.1530,-82.8010,70.01,11111222 
COMPS,ioos:station:USF.COMPS:FHP:1,2019-10-11T23:54:00,28.1530,-82.8010,71.58,11111222 
COMPS,ioos:station:USF.COMPS:FHP:1,2019-10-12T00:54:00,28.1530,-82.8010,73.08,11111222 
COMPS,ioos:station:USF.COMPS:FHP:1,2019-10-12T01:54:00,28.1530,-82.8010,66.7,11111222 
COMPS,ioos:station:USF.COMPS:FHP:1,2019-10-12T02:54:00,28.1530,-82.8010,68.13,11111222 
COMPS,ioos:station:USF.COMPS:FHP:1,2019-10-12T03:54:00,28.1530,-82.8010,74.46,11111222 
COMPS,ioos:station:USF.COMPS:FHP:1,2019-10-12T04:54:00,28.1530,-82.8010,77.54,11111222 
COMPS,ioos:station:USF.COMPS:FHP:1,2019-10-12T05:54:00,28.1530,-82.8010,80.92,11111222 
COMPS,ioos:station:USF.COMPS:FHP:1,2019-10-12T06:54:00,28.1530,-82.8010,83.63,11111222 
COMPS,ioos:station:USF.COMPS:FHP:1,2019-10-12T07:54:00,28.1530,-82.8010,84.34,11111222 
COMPS,ioos:station:USF.COMPS:FHP:1,2019-10-12T08:54:00,28.1530,-82.8010,86.78,11111222 
COMPS,ioos:station:USF.COMPS:FHP:1,2019-10-12T09:54:00,28.1530,-82.8010,87.64,11111222 